Location: Lavington
(51.2833°N, 1.9833°W)
Time: 21:06:53
(UTC+00:00)

Helios 1A - Pass Details

Date: 01 June 2020
Orbit: 584 x 603 km, 98.2° (Epoch: 06 July)

Event Time Altitude Azimuth Distance (km) Brightness Sun altitude
Exits shadow 23:01:43 17° 120° (ESE) 1,542 4.7 -15.2°
Maximum altitude 23:04:21 33° 65° (ENE) 1,019 4.2 -15.3°
Drops below altitude 10° 23:08:07 10° 2° (N) 1,939 6.8 -15.4°
Sets 23:10:26 0° 353° (N) 2,842 8.3 -15.5°
